Location: Miami
(25.6830°N, 80.1700°W)
Time: 11:30:26
(UTC-04:00)

OTV 5 (USA 277) - Visible Passes

Search period start: 21 November 2017 00:00
Search period end: 01 December 2017 00:00
Orbit: 404 x 417 km, 43.0° (Epoch: 07 September)

Date Brightness Start Highest point End Pass type
(mag) Time Alt. Az. Time Alt. Az. Time Alt. Az.
21 Nov ? 06:44:28 15° NNW 06:46:44 32° NNE 06:49:43 10° E visible
22 Nov ? 05:56:04 20° NE 05:56:04 20° NE 05:58:07 10° E visible
23 Nov ? 06:40:29 30° WNW 06:41:56 71° SW 06:45:11 10° SE visible
24 Nov ? 05:52:12 31° ESE 05:52:12 31° ESE 05:54:07 10° ESE visible
25 Nov ? 06:36:45 19° SW 06:36:56 19° SW 06:39:21 10° S visible
26 Nov ? 05:48:33 13° SSE 05:48:33 13° SSE 05:49:00 10° SSE visible
26 Nov ? 20:41:00 10° SW 20:41:13 11° SW 20:41:13 11° SW visible
27 Nov ? 19:50:21 10° SSW 19:52:59 28° SSE 19:52:59 28° SSE visible
28 Nov ? 19:00:10 10° S 19:02:20 16° SE 19:04:31 10° E visible
28 Nov ? 20:36:16 10° WSW 20:37:30 20° W 20:37:30 20° W visible
29 Nov ? 19:45:01 10° WSW 19:48:22 74° NW 19:49:09 48° NE visible
30 Nov ? 18:54:01 10° SW 18:57:19 57° SE 19:00:38 10° ENE visible
30 Nov ? 20:32:38 10° WNW 20:33:31 13° NW 20:33:31 13° NW visible
